Вернуться в каталог

STARLINK-6056

АктивенСвязьVLEO
NORAD 56813·PAYLOAD·🇺🇸 United States

Запущен May 31, 2023 с Vandenberg Space Force Base

Loading…

Ближайшие Пролёты (ближайшие 24 часа)

TLE

СвежийSource: CelesTrak SupGP

Эпоха: Sep 14, 2026, 21:37 UTC

1 56813C 23078AY  26257.90118056  .00019838  00000+0  16622-2 0  2579
2 56813  70.0014 227.2074 0003450 265.8496 202.1529 14.98326149    12

Отслеживайте STARLINK-6056 в реальном времени с AllMySat

Download on the App Store